[[{"header":{"parameterUnit":"m.s-1","parameterCategory":1,"la1":30.2991,"la2":30.254,"lo1":-89.0895,"lo2":-89.0444,"dy":0.0017,"dx":0.0017,"nx":28,"ny":28,"refTime":"2024-07-18T21:00:00:Z","depth":0,"parameterNumber":2,"parameterNumberName":"U-component_of_WINDS"},"data":[0,0,0,0,0,0,0,0,0,0,0,0,0,0,0,0,0,0,0,0,0,0,0,0,0,0,0,0,0,0,0,0,0,0,0,0,0,0,0,0,0,0,0,0,0,0,0,0,0,0,0,0,0,0,0,0,0,0,-0.67,-0.6699,0,-0.6588,-0.6587,-0.6585,-0.6541,-0.6541,-0.6542,-0.6542,-0.6424,-0.6421,-0.6417,0,0,0,0,0,0,0,0,0,0,0,0,0,-0.6873,-0.687,-0.67,-0.6699,-0.6697,-0.6588,-0.6587,-0.6585,-0.6541,-0.6541,-0.6542,-0.6542,-0.6425,-0.6421,-0.6417,0,0,0,0,0,0,0,0,0,0,0,0,0,-0.6783,-0.6869,-0.67,-0.6662,-0.6658,-0.6588,-0.6587,-0.6585,-0.6541,-0.6541,-0.6542,-0.6542,-0.6427,-0.6422,-0.6417,-0.6376,0,0,-0.6401,-0.6399,0,0,0,0,0,0,0,0,-0.6788,-0.6777,-0.6669,-0.6665,-0.666,-0.6579,-0.6604,-0.6515,-0.6541,-0.6585,-0.6542,-0.6543,-0.6475,-0.6466,-0.6444,-0.637,-0.6365,-0.64,-0.6397,-0.6395,-0.6394,0,0,0,0,0,0,0,-0.6795,-0.6782,-0.6656,-0.6668,-0.6662,-0.665,-0.6638,-0.6587,-0.6529,-0.6581,-0.6578,-0.6565,-0.6473,-0.6449,-0.6441,-0.6364,-0.6401,-0.6396,-0.6393,-0.6391,-0.625,-0.625,0,0,0,0,0,0,-0.6808,-0.6787,-0.6659,-0.6652,-0.6727,-0.6646,-0.6633,-0.6604,-0.6529,-0.6518,-0.6565,-0.6564,-0.6457,-0.6447,-0.6437,-0.6383,-0.6395,-0.639,-0.6387,-0.6251,-0.625,-0.6249,0,0,0,0,0,0,-0.6812,-0.6797,-0.6664,-0.6719,-0.6701,-0.6643,-0.6612,-0.6602,-0.6578,-0.6517,-0.6506,-0.6552,-0.6457,-0.6444,-0.6391,-0.6379,-0.6388,-0.6383,-0.6252,-0.6251,-0.625,-0.6277,0,0,0,0,0,0,-0.6817,-0.6798,-0.6783,-0.6719,-0.6698,-0.6622,-0.6611,-0.6599,-0.657,-0.6567,-0.6502,-0.6491,-0.6457,-0.6399,-0.6386,-0.6372,-0.6379,-0.6252,-0.6251,-0.625,-0.6277,-0.6277,-0.6277,0,0,0,0,0,-0.6823,-0.6795,-0.6783,-0.6767,-0.6678,-0.6621,-0.6609,-0.657,-0.6569,-0.6553,-0.6513,-0.6494,-0.6382,-0.6394,-0.6379,-0.6363,-0.6253,-0.6251,-0.625,-0.6277,-0.6277,-0.6277,0,0,0,0,0,0,-0.6858,-0.6786,-0.6771,-0.6722,-0.6678,-0.6614,-0.6592,-0.6572,-0.6527,-0.6526,-0.6479,-0.6465,-0.6416,-0.6384,-0.6399,-0.6319,-0.6316,-0.6312,-0.6342,-0.6341,-0.6342,-0.635,-0.6375,0,0,0,0,0,-0.6861,-0.6821,-0.676,-0.6722,-0.6701,-0.665,-0.6624,-0.6598,-0.655,-0.6531,-0.6488,-0.6442,-0.6396,-0.6367,-0.6322,-0.6273,-0.6257,-0.6254,-0.6254,-0.6255,-0.6251,-0.6221,-0.6219,-0.6244,-0.6244,-0.6244,0,0,-0.6864,-0.682,-0.6798,-0.6728,-0.6691,-0.665,-0.6635,-0.6592,-0.6561,-0.6524,-0.6472,-0.6439,-0.6384,-0.6333,-0.6308,-0.6305,-0.624,-0.6253,-0.6253,-0.6249,-0.622,-0.6217,-0.6215,-0.6243,-0.6244,-0.6244,0,0,-0.685,-0.6813,-0.6777,-0.6741,-0.6685,-0.6652,-0.6643,-0.6582,-0.6558,-0.6506,-0.6477,-0.6439,-0.6362,-0.6324,-0.6294,-0.6266,-0.6245,-0.6252,-0.6253,-0.6224,-0.6222,-0.622,-0.6209,-0.6206,-0.6249,-0.6249,-0.6249,0,-0.6862,-0.68,-0.6761,-0.672,-0.669,-0.6655,-0.6618,-0.6584,-0.6516,-0.6496,-0.6493,-0.6395,-0.6356,-0.6295,-0.6288,-0.6266,-0.6254,-0.6259,-0.6226,-0.6224,-0.6221,-0.621,-0.6206,-0.625,-0.625,-0.625,-0.625,0,-0.6817,-0.6774,-0.6752,-0.6688,-0.6655,-0.6616,-0.657,-0.6541,-0.6518,-0.6485,-0.6431,-0.6383,-0.6327,-0.6311,-0.6288,-0.6246,-0.6246,-0.6236,-0.6231,-0.6221,-0.6209,-0.6205,-0.6252,-0.6251,-0.6251,-0.6251,0,0,-0.6821,-0.6737,-0.6729,-0.6699,-0.6636,-0.6601,-0.6561,-0.6507,-0.6483,-0.6437,-0.6401,-0.6337,-0.6326,-0.6293,-0.6265,-0.6241,-0.622,-0.6233,-0.6231,-0.6232,-0.617,-0.6178,-0.6174,-0.6207,-0.6206,-0.6205,-0.6175,0,-0.6798,-0.6725,-0.6688,-0.663,-0.6589,-0.6556,-0.652,-0.6477,-0.6445,-0.6405,-0.6369,-0.6324,-0.6314,-0.6294,-0.6268,-0.6228,-0.6207,-0.623,-0.6171,-0.617,-0.6186,-0.6168,-0.6176,-0.615,-0.617,-0.6169,-0.6169,0,-0.6761,-0.6717,-0.6655,-0.6595,-0.6577,-0.6546,-0.6493,-0.6456,-0.6406,-0.6384,-0.6347,-0.632,-0.6274,-0.6274,-0.621,-0.6227,-0.62,-0.6177,-0.6175,-0.6167,-0.6168,-0.6159,-0.6141,-0.6137,-0.6162,-0.6162,-0.6163,0,-0.677,-0.6695,-0.6648,-0.6623,-0.6553,-0.6532,-0.6501,-0.6451,-0.6421,-0.6375,-0.6354,-0.6303,-0.6275,-0.6236,-0.6195,-0.6199,-0.6135,-0.6132,-0.6114,-0.6115,-0.6102,-0.6103,-0.6078,-0.6087,-0.6087,-0.6087,-0.6087,0,-0.6748,-0.6711,-0.6651,-0.6622,-0.6579,-0.6537,-0.6496,-0.6462,-0.6418,-0.6381,-0.6349,-0.6315,-0.6264,-0.6223,-0.6191,-0.6143,-0.613,-0.611,-0.6102,-0.6113,-0.6115,-0.6094,-0.6095,-0.6086,-0.6086,-0.6086,-0.6086,0,-0.6751,-0.6709,-0.6655,-0.6593,-0.6576,-0.6548,-0.6494,-0.6464,-0.643,-0.6384,-0.637,-0.6317,-0.6267,-0.6223,-0.6157,-0.6135,-0.6085,-0.6075,-0.6103,-0.6098,-0.6083,-0.6085,-0.6043,-0.6035,-0.605,-0.605,-0.605,0,-0.6739,-0.671,-0.6644,-0.6618,-0.6588,-0.6546,-0.6515,-0.6472,-0.6441,-0.6381,-0.6358,-0.6306,-0.6262,-0.6184,-0.6139,-0.6088,-0.6076,-0.6065,-0.6068,-0.608,-0.6075,-0.6077,-0.6073,-0.6065,-0.6065,-0.6065,-0.6065,0,-0.6722,-0.6703,-0.666,-0.661,-0.6574,-0.6532,-0.6489,-0.6469,-0.6418,-0.6385,-0.6334,-0.63,-0.6233,-0.6181,-0.6125,-0.6093,-0.607,-0.6065,-0.6058,-0.6068,-0.6085,-0.6075,-0.6102,-0.6066,-0.6066,-0.6066,-0.6066,-0.6066,-0.6716,-0.6689,-0.6638,-0.6592,-0.6555,-0.6516,-0.6484,-0.6447,-0.6404,-0.6346,-0.6323,-0.6271,-0.6221,-0.6143,-0.6111,-0.6069,-0.6064,-0.6055,-0.6052,-0.605,-0.6052,-0.6092,-0.6058,-0.6058,-0.6058,-0.6058,-0.6058,0,-0.6697,-0.6663,-0.6621,-0.6562,-0.6525,-0.6508,-0.646,-0.6429,-0.6384,-0.6339,-0.6297,-0.6238,-0.6188,-0.6139,-0.6086,-0.6062,-0.605,-0.6049,-0.605,-0.6042,-0.6059,-0.607,-0.6059,-0.6059,-0.6059,-0.6059,-0.6059,-0.6059,-0.6683,-0.6635,-0.661,-0.6543,-0.6509,-0.6458,-0.6432,-0.6395,-0.6359,-0.6295,-0.6253,-0.6222,-0.6175,-0.6118,-0.6071,-0.6058,-0.6039,-0.6041,-0.6025,-0.6041,-0.6041,-0.6042,-0.6052,-0.6038,-0.6038,-0.6012,-0.6011,-0.6011]},{"header":{"parameterUnit":"m.s-1","parameterCategory":1,"la1":30.2991,"la2":30.254,"lo1":-89.0895,"lo2":-89.0444,"dy":0.0017,"dx":0.0017,"nx":28,"ny":28,"refTime":"2024-07-18T21:00:00:Z","depth":0,"parameterNumber":3,"parameterNumberName":"V-component_of_WINDS"},"data":[0,0,0,0,0,0,0,0,0,0,0,0,0,0,0,0,0,0,0,0,0,0,0,0,0,0,0,0,0,0,0,0,0,0,0,0,0,0,0,0,0,0,0,0,0,0,0,0,0,0,0,0,0,0,0,0,0,0,3.5606,3.5606,0,3.563,3.563,3.563,3.561,3.5609,3.5608,3.5607,3.5629,3.563,3.5631,0,0,0,0,0,0,0,0,0,0,0,0,0,3.5541,3.5542,3.5606,3.5606,3.5607,3.563,3.563,3.563,3.561,3.5609,3.5608,3.5607,3.5628,3.563,3.5631,0,0,0,0,0,0,0,0,0,0,0,0,0,3.5567,3.5542,3.5606,3.5599,3.5599,3.563,3.563,3.563,3.561,3.5609,3.5608,3.5607,3.5628,3.563,3.5632,3.5669,0,0,3.5638,3.5639,0,0,0,0,0,0,0,0,3.5566,3.557,3.56,3.56,3.56,3.5616,3.5615,3.5643,3.5611,3.5606,3.5607,3.5606,3.5625,3.5627,3.5634,3.567,3.5671,3.5638,3.5639,3.564,3.5641,0,0,0,0,0,0,0,3.5564,3.5568,3.5615,3.5601,3.56,3.5594,3.5597,3.562,3.5622,3.5606,3.5605,3.5608,3.5625,3.5632,3.5635,3.5671,3.5638,3.564,3.5641,3.5642,3.5739,3.574,0,0,0,0,0,0,3.5563,3.5567,3.5615,3.5616,3.5579,3.5597,3.5599,3.5612,3.5622,3.5622,3.5609,3.5607,3.563,3.5632,3.5635,3.568,3.564,3.5642,3.5643,3.5737,3.5739,3.5741,0,0,0,0,0,0,3.5562,3.5568,3.5614,3.5591,3.5597,3.5599,3.5613,3.5613,3.5621,3.5624,3.5624,3.5617,3.5629,3.5633,3.5661,3.568,3.5643,3.5645,3.5736,3.5738,3.574,3.5769,0,0,0,0,0,0,3.556,3.5567,3.5582,3.5592,3.5598,3.564,3.5614,3.5614,3.5625,3.5622,3.5631,3.5632,3.5628,3.5658,3.5663,3.5682,3.5646,3.5734,3.5737,3.5739,3.5766,3.5772,3.5777,0,0,0,0,0,3.5558,3.5589,3.5583,3.5589,3.5617,3.5641,3.5644,3.5641,3.5626,3.5641,3.5643,3.5631,3.5678,3.5661,3.5667,3.5687,3.5733,3.5736,3.5739,3.5764,3.5771,3.5777,0,0,0,0,0,0,3.558,3.559,3.5583,3.5619,3.5629,3.5638,3.5656,3.5648,3.5662,3.5659,3.5653,3.5655,3.5685,3.5689,3.567,3.5724,3.5703,3.5707,3.572,3.5726,3.5731,3.573,3.5648,0,0,0,0,0,3.5589,3.5609,3.5616,3.5646,3.5652,3.5653,3.5664,3.566,3.567,3.5674,3.5679,3.5688,3.5705,3.5716,3.5731,3.5767,3.5769,3.5784,3.5789,3.5793,3.5797,3.5816,3.5822,3.5751,3.5751,3.5751,0,0,3.5608,3.5616,3.5628,3.5651,3.5659,3.5679,3.5657,3.5679,3.5693,3.5677,3.5705,3.5708,3.5719,3.5751,3.5765,3.5755,3.5817,3.5797,3.58,3.5802,3.582,3.5826,3.5832,3.5753,3.5752,3.5752,0,0,3.5652,3.566,3.5686,3.5695,3.5708,3.5708,3.5715,3.5724,3.5726,3.5754,3.5743,3.5759,3.5788,3.5796,3.5804,3.5852,3.5842,3.5857,3.5884,3.5903,3.5908,3.5913,3.593,3.5936,3.5861,3.5861,3.5861,0,3.5673,3.5704,3.57,3.5724,3.5734,3.5722,3.5748,3.5756,3.5772,3.5779,3.5768,3.5804,3.581,3.5844,3.5856,3.5863,3.587,3.5856,3.5908,3.5913,3.5917,3.5933,3.594,3.5863,3.5863,3.5863,3.5862,0,3.5729,3.5751,3.577,3.5788,3.58,3.5825,3.5825,3.5837,3.5833,3.5834,3.5863,3.587,3.5887,3.5894,3.589,3.5928,3.5921,3.5909,3.5888,3.5926,3.5941,3.5947,3.5865,3.5865,3.5864,3.5864,0,0,3.5787,3.5804,3.5811,3.5819,3.5832,3.5848,3.5872,3.589,3.5901,3.5913,3.5932,3.5957,3.5946,3.5955,3.5951,3.5968,3.6005,3.5953,3.5953,3.5963,3.6048,3.6057,3.6064,3.5999,3.6,3.6001,3.6047,0,3.5832,3.5874,3.5873,3.5912,3.5932,3.5921,3.5941,3.5951,3.5954,3.597,3.5972,3.599,3.5974,3.5979,3.5995,3.5998,3.6022,3.5994,3.6016,3.6017,3.6014,3.6072,3.6081,3.6124,3.6053,3.6054,3.6054,0,3.5889,3.5905,3.5947,3.5958,3.5966,3.5985,3.6001,3.6017,3.6028,3.6028,3.6039,3.6032,3.6056,3.6034,3.6066,3.6047,3.6056,3.6058,3.606,3.6062,3.6038,3.6075,3.6138,3.6144,3.6064,3.6063,3.6062,0,3.5927,3.5959,3.5988,3.5995,3.6009,3.6022,3.6028,3.6038,3.6049,3.6063,3.607,3.6086,3.6094,3.6107,3.6104,3.6089,3.6137,3.6115,3.6137,3.6137,3.6147,3.6146,3.6212,3.6153,3.6153,3.6153,3.6153,0,3.5977,3.6003,3.6005,3.6023,3.6052,3.6049,3.6077,3.6081,3.6091,3.6108,3.61,3.6116,3.6113,3.6129,3.6127,3.6154,3.6158,3.6158,3.6157,3.6159,3.6159,3.6164,3.6161,3.6155,3.6155,3.6154,3.6154,0,3.6024,3.6027,3.6058,3.6069,3.6072,3.6093,3.6101,3.6118,3.612,3.6143,3.6148,3.615,3.6169,3.6169,3.619,3.6189,3.6221,3.6217,3.6218,3.6217,3.6239,3.6237,3.631,3.632,3.6255,3.6256,3.6256,0,3.6056,3.6076,3.6089,3.6102,3.6109,3.6128,3.614,3.6138,3.615,3.6164,3.6179,3.6198,3.6212,3.6243,3.6246,3.6262,3.6258,3.6283,3.626,3.6262,3.6258,3.6257,3.6259,3.6287,3.6288,3.6288,3.6289,0,3.6112,3.6112,3.613,3.6148,3.6162,3.6176,3.6189,3.6199,3.6198,3.6212,3.6232,3.6244,3.6266,3.6285,3.63,3.6305,3.6297,3.6296,3.6302,3.6304,3.6303,3.6304,3.623,3.6294,3.6294,3.6293,3.6293,3.6293,3.6152,3.6169,3.6182,3.6202,3.6211,3.6224,3.624,3.6245,3.6262,3.6281,3.6278,3.63,3.6311,3.6331,3.6338,3.6355,3.6346,3.6354,3.6357,3.6359,3.6361,3.6301,3.6358,3.6357,3.6357,3.6357,3.6357,0,3.6207,3.6215,3.6234,3.6252,3.6268,3.626,3.6274,3.6287,3.6307,3.6318,3.6333,3.6356,3.6374,3.6379,3.6396,3.6409,3.6405,3.6413,3.6412,3.6413,3.6368,3.6361,3.6416,3.6416,3.6416,3.6416,3.6416,3.6416,3.6238,3.6267,3.6269,3.6303,3.631,3.6333,3.6341,3.6352,3.6361,3.6388,3.6403,3.6407,3.6415,3.6433,3.6449,3.645,3.6456,3.6466,3.6465,3.6422,3.6417,3.6411,3.6405,3.6467,3.6467,3.6509,3.6509,3.651]}]]